Location: La Comballaz
(46.3780°N, 7.0817°E)
Time: 06:02:19
(UTC+00:00)

N. Korean satellite - Visible Passes

Search period start: 04 March 2021 00:00
Search period end: 14 March 2021 00:00
Orbit: 451 x 502 km, 97.2° (Epoch: 03 March)

Date Brightness Start Highest point End Pass type
(mag) Time Alt. Az. Time Alt. Az. Time Alt. Az.
04 Mar 6.7 04:58:32 10° NNE 05:02:05 75° ESE 05:05:40 10° S visible
05 Mar 8.3 04:31:59 10° NNE 04:35:16 34° E 04:38:34 10° SSE visible
06 Mar 9.6 04:05:55 10° NE 04:08:21 17° E 04:10:47 10° SE visible
07 Mar 6.5 05:11:30 10° N 05:15:04 74° WNW 05:18:40 10° SSW visible
08 Mar 7.6 04:44:47 10° NNE 04:48:17 50° E 04:51:48 10° S visible
09 Mar 9.1 04:18:25 10° NE 04:21:23 24° E 04:24:23 10° SSE visible
10 Mar 9.9 03:52:51 10° ENE 03:54:23 12° E 03:55:56 10° ESE visible
11 Mar 6.8 04:57:36 10° NNE 05:01:12 75° ESE 05:04:50 10° S visible
12 Mar 8.4 04:31:00 10° NNE 04:34:19 34° E 04:37:40 10° SSE visible
13 Mar 9.7 04:04:53 10° NE 04:07:21 17° E 04:09:50 10° SE visible
